User: anonymous   Login
Location: Brahman Valley
(40.6513°N, 111.8855°W)
Time: 13:33:28
(UTC+00:00)
Language:

Transit 2A - Orbit

View from above orbital plane
View from above orbital plane
View from above satellite
View from above satellite

Ground track
Ground track

The orbit data is extracted from the following two-line orbital elements,

1 00045U 60007A   21132.71190443 -.00000060  00000-0  11754-4 0  9999
2 00045  66.6949 233.2002 0247943  75.4922 287.3543 14.33719010113030
Epoch (UTC): 12 May 2021 17:05:08
Eccentricity: 0.0247943
inclination: 66.6949°
perigee height: 602 km
apogee height: 957 km
right ascension of ascending node: 233.2002°
argument of perigee: 75.4922°
revolutions per day: 14.33719010
mean anomaly at epoch: 287.3543°
orbit number at epoch: 11303

The dashed part of the orbit path shows where the satellite is in the earth's shadow,  

DLR